Regional Weather Roundup
Issued by NWS

Home | Current Version | Previous Version | Graphics & Text | Print | Product List | Glossary On
Versions: 1 2 3 4 5 6 7 8 9 10 11 12 13 14 15 16 17 18 19 20 21 22 23 24 25 26 27
000
ASUS45 KBOU 050507
RWRCO

WEATHER ROUNDUP FOR COLORADO
NATIONAL WEATHER SERVICE DENVER/BOULDER CO
1100 PM MDT WED MAY 04 2016

NOTE: "FAIR" INDICATES FEW OR NO CLOUDS BELOW 12000 FEET WITH NO
SIGNIFICANT WEATHER AND/OR OBSTRUCTIONS TO VISIBILITY.

COZ001>005-013-030-031-050600-
...NORTHWEST COLORADO...

CITY           SKY/WX    TMP DP  RH WIND       PRES   REMARKS
CRAIG          FAIR      45  36  70 CALM      30.18R
HAYDEN         FAIR      50  32  50 NE3       30.19S
MEEKER         FAIR      50  32  50 CALM      30.19R
MOUNT WERNER   NOT AVBL
STEAMBOAT SPGS FAIR      50  28  42 NE3       30.21S
WALDEN         FAIR      34  23  64 SE10      30.29F WCI  26
$$

COZ006>008-011-050600-
...WEST CENTRAL VALLEYS...

CITY           SKY/WX    TMP DP  RH WIND       PRES   REMARKS
GRAND JUNCTION FAIR      59  35  40 E8        30.09R
MONTROSE       FAIR      53  32  44 SE12      30.18R
EAGLE          FAIR      52  28  40 E3        30.23R
RIFLE          FAIR      52  33  48 SE7       30.14R
DELTA          NOT AVBL
NUCLA          NOT AVBL
$$

COZ017>023-064>068-050600-
...SOUTHWEST COLORADO...

CITY           SKY/WX    TMP DP  RH WIND       PRES   REMARKS
DURANGO        FAIR      48  32  53 N6        30.24R
CORTEZ         FAIR      48  30  49 VRB3      30.18R
PAGOSA SPRINGS FAIR      45  29  53 CALM      30.31S
TELLURIDE      FAIR      50  22  33 SE3       30.39R
WOLF CREEK PAS FAIR      36  19  51 SW20      30.54S
$$

COZ009-010-012-014-032>034-037-058>063-050600-
...CENTRAL COLORADO...

CITY           SKY/WX    TMP DP  RH WIND       PRES   REMARKS
ASPEN          FAIR      45  24  43 SW8       30.27S
BUENA VISTA    FAIR      45  30  56 CALM      30.31R
COPPER MTN     NOT AVBL
BERTHOUD PASS  FAIR      32  23  69 CALM      30.52F
COTTONWOOD PAS FAIR      50  19  29 CALM      30.40R
GUNNISON       FAIR      48  25  40 CALM      30.31R
KREMMLING      FAIR      43  27  52 CALM      30.27R
LEADVILLE      FAIR      35  20  54 NE3       30.38R
MONARCH PASS   FAIR      37  21  52 SW14      30.61S
SALIDA         NOT AVBL
SUNLIGHT       FAIR      46  23  39 W3        30.47S
WILKERSON PASS FAIR      37  23  56 S12G18    30.49S
$$

COZ069>075-050600-
...SAN LUIS VALLEY/SANGRE DE CRISTO MOUNTAINS...

CITY           SKY/WX    TMP DP  RH WIND       PRES   REMARKS
ALAMOSA        FAIR      46  32  58 S7        30.26R
LA VETA PASS   FAIR      45  19  36 S10G16    30.41F
SAGUACHE       FAIR      46  30  53 N9        30.29R
$$

COZ035-036-038>040-050600-
...NORTHERN COLORADO FRONT RANGE...

CITY           SKY/WX    TMP DP  RH WIND       PRES   REMARKS
DENVER INTL AP FAIR      49  38  65 S12       30.16S
DMNS CITY PARK   N/A     58  34  39 SE6       30.15S
AURORA         FAIR      54  37  53 SE16      30.18S
FRONT RANGE AP NOT AVBL
ERIE MUNI ARPT FAIR      51  40  67 SW3       30.15S
BOULDER MUN AP FAIR      59  32  36 SW5       30.16S
CENTENNIAL     FAIR      55  34  45 S10       30.17F
BROOMFIELD     NOT AVBL
FORT COLLINS   FAIR      57  37  47 S6        30.16R
LONGMONT       FAIR      53  38  55 SW6       30.17S
$$

COZ041-046-047-076>085-087-088-050600-
...PIKES PEAK/PALMER DIVIDE AND SOUTHERN FOOTHILLS...

CITY           SKY/WX    TMP DP  RH WIND       PRES   REMARKS
COLO. SPRINGS  FAIR      57  29  34 CALM      30.23S
A. F. ACADEMY  FAIR      43  32  65 N7        30.23S
SCHRIEVER AFB  NOT AVBL
ELLICOTT       FAIR     N/A N/A N/A S12       30.20S
FALCON         NOT AVBL
FORT CARSON    MOCLDY    58  31  35 W8        30.20R
LIMON          FAIR      46  39  76 SE6       30.19S
MONUMENT HILL  FAIR      48  32  53 SE8       30.26S
TRINIDAD       FAIR      50  35  56 W7        30.17S
$$

COZ042>045-048>051-090-091-050600-
...NORTHEAST COLORADO...

CITY           SKY/WX    TMP DP  RH WIND       PRES   REMARKS
GREELEY ARPT   FAIR      54  39  58 CALM      30.14S
AKRON          FAIR      55  40  56 S12       30.15S
BURLINGTON     FAIR      52  41  66 S10       30.15S
WRAY           NOT AVBL
STERLING       FAIR      52  41  66 SW3       30.11S
HOLYOKE        NOT AVBL
FORT MORGAN    FAIR      53  39  59 S7        30.15S
$$

COZ086-089-092>099-050600-
...SOUTHEAST COLORADO...

CITY           SKY/WX    TMP DP  RH WIND       PRES   REMARKS
PUEBLO         FAIR      55  37  50 NE3       30.13S
LA JUNTA       FAIR      62  39  42 SE6       30.12S
LAMAR          FAIR      55  44  66 SE6       30.11R
SPRINGFIELD      N/A     50  42  74 S9        30.15S
$$




USA.gov is the U.S. government's official web portal to all federal, state and local government web resources and services.